Probability
0 0 0 0 0 0 0 0 0 0 0 0 0 0 0 0 0 0 0 0 0 0 0 0 0 0 0 0 0 0 0 0 0 0 0 0 0 0 0 0 0 0 0
0 0 0 0 0 0 0 0 0 0 0 0 0 0 0 0 0 0 0 0 0 0 0 0 0 0 0 0 0 0 0 0 0 0 0 0 0 0 0 0 0 0 0
0 0 0 0 0 0 0 0 0 0 0 0 0 0 0 0 0 0 0 0 0 0 0 0 0 0 0 0 0 0 0 0 0 0 0 0 0 0 0 0 0 0 0
0 0 0 0 0 0 0 0 0 0 0 0 0 0 0 0 0 0 0 0 0 0 0 0 0 0 0 0 0 0 0 0 0 0 0 0 0 0 0 0 0 0 0
0 0 0 0 0 0 0 0 0 0 0 0 0 0 0 0 0 0 0 0 0 0 0 0 0 0 0 0 0 0 0 0 0 0 0 0 0 0 0 0 0 0 0
0 0 0 0 0 0 0 0 0 0 0 0 0 0 0 0 0 0 0 0 0 0 0 0 0 0 0 0 0 0 0 0 0 0 0 0 0 0 0 0 0 0 0
0 0 0 0 0 0 0 0 0 0 0 0 0 0 0 0 0 0 0 0 0 0 0 0 0 0 0 0 0 0 0 0 0 0 0 0 0 0 0 0 0 0 0
0 0 0 0 0 0 0 0 0 0 0 0 0 0 0 0 0 0 0 0 0 0 0 0 0 0 0 0 0 0 0 0 0 0 0 0 0 0 0 0 0 0 0
0 0 0 0 0 0 0 0 0 0 0 0 0 0 0 0 0 0 0 0 0 0 0 0 0 0 0 0 0 0 0 0 0 0 0 0 0 0 0 0 0 0 0
0 0 0 0 0 0 0 0 0 0 0 0 0 0 0 0 0 0 0 0 0 0 0 0 0 0 0 0 0 0 0 0 0 0 0 0 0 0 0 0 0 0 0
0 0 0 0 0 0 0 0 0 0 0 0 0 0 0 0 0 0 0 0 0 0 0 0 0 0 0 0 0 0 0 0 0 0 0 0 0 0 0 0 0 0 0
0 0 0 0 0 0 0 0 0 0 0 0 0 0 0 0 0 0 0 0 0 0 0 0 0 0 0 0 0 0 0 0 0 0 0 0 0 0 0 0 0 0 0
0 0 0 0 0 0 0 0 0 0 0 0 0 0 0 0 0 0 0 0 0 0 0 0 0 0 0 0 0 0 0 0 0 0 0 0 0 0 0 0 0 0 0
0 0 0 0 0 0 0 0 0 0 0 0 0 0 0 0 0 0 0 0 0 0 0 0 0 0 0 0 0 0 0 0 0 0 0 0 0 0 0 0 0 0 0
0 0 0 0 0 0 0 0 0 0 0 0 0 0 0 0 0 0 0 0 0 0 0 0 0 0 0 0 0 0 0 0 0 0 0 0 0 0 0 0 0 0 0
0 0 0 0 0 0 0 0 0 0 0 0 0 0 0 0 0 0 0 0 0 0 0 0 0 0 0 0 0 0 0 0 0 0 0 0 0 0 0 0 0 0 0
0 0 0 0 0 0 0 0 0 0 0 0 0 0 0 0 0 0 0 0 0 0 0 0 0 0 0 0 0 0 0 0 0 0 0 0 0 0 0 0 0 0 0
0 0 0 0 0 0 0 0 0 0 0 0 0 0 0 0 0 0 0 0 0 0 0 0 0 0 0 0 0 0 0 0 0 0 0 0 0 0 0 0 0 0 0
0 0 0 0 0 0 0 0 0 0 0 0 0 0 0 0 0 0 0 0 0 0 0 0 0 0 0 0 0 0 0 0 0 0 0 0 0 0 0 0 0 0 0
0 0 0 0 0 0 0 0 0 0 0 0 0 0 0 0 0 0 0 0 0 0 0 0 0 0 0 0 0 0 0 0 0 0 0 0 0 0 0 0 0 0 0
0 0 0 0 0 0 0 0 0 0 0 0 0 0 0 0 0 0 0 0 0 0 0 0 0 0 0 0 0 0 0 0 0 0 0 0 0 0 0 0 0 0 0
0 0 0 0 0 0 0 0 0 0 0 0 0 0 0 0 0 0 0 0 0 0 0 0 0 0 0 0 0 0 0 0 0 0 0 0 0 0 0 0 0 0 0
0 0 0 0 0 0 0 0 0 0 0 0 0 0 0 0 0 0 0 0 0 0 0 0 0 0 0 0 0 0 0 0 0 0 0 0 0 0 0 0 0 0 0
0 0 0 0 0 0 0 0 0 0 0 0 0 0 0 0 0 0 0 0 0 0 0 0 0 0 0 0 0 0 0 0 0 0 0 0 0 0 0 0 0 0 0
0 0 0 0 0 0 0 0 0 0 0 0 0 0 0 0 0 0 0 0 0 0 0 0 0 0 0 0 0 0 0 0 0 0 0 0 0 0 0 0 0 0 0
0 0 0 0 0 0 0 0 0 0 0 0 0 0 0 0 0 0 0 0 0 0 0 0 0 0 0 0 0 0 0 0 0 0 0 0 0 0 0 0 0 0 0
Height
5718 5717 5717 5717 5717 5717 5716 5716 5716 5716 5716 5717 5717 5717 5717 5718 5718 5718 5718 5718 5718 5719 5719 5719 5719 5719 5720 5720 5720 5721 5722 5723 5724 5725 5727 5728 5728 5730 5731 5731 5732 5733 5734
5710 5710 5709 5709 5708 5708 5708 5707 5707 5706 5706 5706 5707 5707 5707 5707 5707 5707 5707 5707 5707 5708 5707 5707 5708 5708 5708 5708 5709 5709 5710 5711 5711 5713 5714 5715 5717 5717 5718 5719 5720 5721 5721
5702 5702 5701 5700 5700 5699 5699 5698 5698 5697 5696 5696 5696 5696 5696 5696 5697 5697 5697 5696 5696 5696 5696 5696 5696 5696 5696 5696 5696 5697 5697 5698 5698 5699 5700 5701 5702 5704 5706 5706 5706 5707 5708
5694 5693 5693 5692 5691 5691 5690 5689 5688 5688 5687 5686 5685 5685 5685 5686 5686 5686 5686 5685 5685 5685 5684 5684 5684 5684 5684 5684 5684 5684 5684 5684 5684 5685 5685 5686 5687 5688 5690 5692 5692 5693 5693
5686 5685 5684 5683 5683 5682 5681 5680 5679 5678 5678 5676 5676 5675 5675 5675 5674 5674 5674 5674 5673 5673 5672 5672 5672 5671 5671 5670 5670 5670 5669 5669 5669 5669 5670 5671 5671 5671 5673 5676 5677 5678 5678
5677 5676 5675 5674 5674 5673 5672 5671 5670 5669 5668 5667 5665 5665 5664 5663 5663 5663 5662 5662 5661 5661 5660 5659 5659 5658 5657 5656 5656 5655 5655 5654 5654 5654 5654 5654 5655 5656 5656 5658 5660 5662 5663
5668 5667 5666 5665 5664 5664 5663 5662 5660 5659 5658 5657 5655 5654 5653 5652 5651 5651 5650 5650 5649 5648 5647 5646 5645 5644 5643 5642 5641 5640 5640 5639 5638 5638 5638 5638 5638 5638 5639 5640 5642 5644 5646
5659 5658 5657 5656 5655 5654 5653 5652 5650 5649 5648 5646 5645 5643 5642 5641 5640 5639 5638 5637 5636 5635 5634 5632 5631 5630 5629 5627 5626 5625 5624 5623 5622 5622 5622 5621 5621 5620 5621 5622 5623 5625 5628
5650 5649 5648 5647 5646 5644 5643 5642 5640 5639 5637 5636 5634 5633 5631 5630 5628 5627 5625 5624 5622 5621 5620 5618 5617 5616 5614 5613 5611 5610 5609 5607 5606 5605 5605 5604 5604 5603 5603 5603 5604 5605 5608
5641 5640 5638 5637 5636 5635 5633 5631 5630 5628 5627 5625 5624 5622 5620 5618 5616 5614 5612 5611 5609 5607 5606 5604 5603 5601 5599 5597 5596 5595 5593 5591 5590 5589 5588 5587 5586 5585 5585 5585 5585 5585 5587
5631 5630 5628 5627 5626 5624 5623 5621 5619 5617 5616 5614 5612 5610 5608 5607 5604 5602 5600 5598 5596 5593 5592 5590 5588 5586 5584 5582 5580 5579 5577 5575 5573 5572 5570 5569 5568 5567 5567 5567 5567 5567 5567
5621 5620 5618 5617 5615 5614 5612 5610 5608 5606 5604 5603 5601 5599 5597 5594 5592 5590 5587 5585 5583 5580 5577 5575 5573 5571 5569 5567 5565 5563 5561 5558 5557 5554 5553 5551 5550 5550 5549 5548 5548 5548 5548
5611 5610 5608 5606 5605 5603 5601 5599 5597 5595 5593 5591 5589 5587 5585 5582 5580 5577 5575 5572 5569 5566 5563 5560 5558 5555 5553 5551 5548 5546 5544 5542 5539 5537 5536 5534 5533 5532 5531 5530 5530 5530 5530
5601 5599 5597 5596 5594 5592 5590 5588 5586 5584 5582 5580 5577 5575 5572 5570 5567 5564 5561 5558 5555 5552 5549 5546 5542 5540 5537 5535 5532 5529 5527 5525 5523 5520 5518 5517 5515 5514 5513 5513 5512 5512 5512
5591 5589 5587 5585 5583 5581 5579 5577 5575 5572 5570 5568 5565 5562 5560 5557 5554 5551 5548 5544 5541 5538 5534 5531 5528 5524 5521 5519 5516 5513 5511 5508 5506 5504 5501 5500 5498 5496 5496 5495 5494 5494 5494
5580 5578 5576 5574 5572 5570 5568 5566 5563 5561 5558 5556 5553 5550 5547 5544 5540 5537 5534 5530 5527 5523 5520 5517 5513 5509 5506 5503 5500 5497 5494 5492 5489 5487 5485 5483 5481 5480 5479 5478 5477 5476 5477
5569 5567 5565 5563 5560 5558 5556 5554 5551 5549 5546 5543 5540 5537 5534 5530 5527 5523 5520 5516 5513 5509 5506 5502 5498 5495 5491 5487 5484 5480 5478 5476 5473 5471 5469 5467 5465 5464 5463 5462 5461 5460 5460
5558 5556 5554 5551 5549 5547 5544 5541 5539 5536 5533 5530 5527 5524 5520 5517 5513 5510 5506 5503 5499 5495 5491 5488 5484 5480 5476 5472 5468 5465 5462 5460 5458 5455 5453 5452 5450 5449 5447 5446 5446 5445 5445
5547 5545 5542 5540 5537 5534 5532 5529 5526 5523 5520 5517 5514 5511 5507 5504 5500 5496 5492 5489 5485 5481 5477 5473 5469 5465 5461 5457 5454 5450 5448 5445 5443 5440 5438 5436 5435 5434 5432 5431 5431 5430 5430
5536 5533 5531 5528 5525 5522 5520 5517 5514 5511 5508 5504 5501 5497 5494 5490 5487 5483 5479 5475 5471 5467 5463 5459 5455 5451 5447 5443 5439 5435 5433 5431 5429 5426 5424 5422 5420 5418 5415 5414 5414 5414 5414
5524 5522 5519 5516 5513 5510 5508 5505 5501 5498 5495 5491 5488 5484 5481 5477 5473 5469 5465 5461 5457 5453 5449 5445 5441 5436 5432 5428 5424 5421 5418 5416 5414 5411 5409 5407 5405 5403 5401 5399 5399 5399 5398
5513 5510 5508 5505 5502 5499 5496 5493 5489 5486 5482 5478 5475 5471 5467 5463 5459 5456 5451 5447 5443 5439 5435 5431 5427 5422 5418 5414 5410 5406 5403 5400 5399 5397 5395 5393 5391 5390 5388 5386 5385 5383 5383
5502 5499 5496 5493 5490 5487 5484 5480 5477 5473 5469 5466 5462 5458 5454 5450 5446 5442 5438 5433 5429 5425 5421 5417 5413 5408 5404 5400 5396 5392 5389 5386 5384 5382 5381 5379 5377 5376 5374 5372 5370 5369 5368
5490 5488 5485 5481 5478 5475 5471 5468 5464 5460 5457 5453 5449 5445 5441 5437 5433 5428 5424 5420 5415 5411 5406 5402 5398 5394 5390 5386 5382 5379 5375 5373 5370 5368 5367 5365 5363 5362 5360 5359 5357 5355 5354
5479 5476 5473 5470 5466 5463 5459 5455 5451 5448 5444 5440 5436 5432 5428 5424 5420 5415 5410 5406 5401 5396 5392 5388 5384 5380 5376 5372 5368 5364 5362 5359 5357 5354 5353 5351 5350 5348 5347 5345 5343 5342 5340
5468 5465 5461 5458 5454 5450 5447 5443 5439 5435 5431 5428 5424 5420 5416 5411 5407 5402 5397 5392 5387 5382 5377 5373 5369 5365 5362 5358 5354 5351 5348 5345 5342 5340 5339 5337 5336 5334 5333 5332 5330 5328 5327
Wind_Speed
31 31 31 31 32 33 34 35 36 37 38 39 39 40 40 40 40 40 41 42 42 43 43 43 43 44 44 44 44 44 45 45 45 45 45 45 45 46 46 46 46 47 46
31 31 31 31 32 32 33 34 35 36 38 39 39 40 40 41 41 41 41 42 42 43 43 45 44 44 45 46 46 47 47 48 48 48 47 47 48 49 49 49 49 49 49
30 30 31 31 32 32 33 34 34 35 36 38 39 40 40 41 41 41 41 42 42 43 43 44 45 45 46 46 47 48 49 50 50 50 50 51 51 52 51 52 51 51 50
30 31 31 32 32 33 33 34 34 35 35 37 38 39 40 41 41 41 42 43 43 44 44 45 45 45 46 48 49 50 50 51 52 52 52 52 53 54 54 54 53 53 53
30 30 31 32 33 33 33 33 34 34 35 36 37 39 40 42 43 43 44 44 44 45 45 46 47 47 48 49 51 51 51 52 53 53 53 54 54 54 55 55 55 55 55
30 30 31 32 33 33 34 34 35 35 36 36 37 38 40 41 43 44 45 45 46 46 47 47 48 49 50 51 51 51 52 52 53 54 54 55 56 57 56 56 56 56 56
31 31 32 33 33 34 34 35 35 36 36 37 37 38 40 41 43 44 45 46 47 48 48 49 50 50 51 52 52 52 53 54 55 55 56 56 57 59 59 58 58 58 58
31 31 32 33 33 34 34 35 36 37 37 37 38 39 40 41 42 44 45 46 48 49 50 51 51 51 52 52 52 53 53 54 55 55 56 56 57 59 60 60 60 61 60
31 31 32 33 34 34 35 35 36 37 38 38 39 39 40 41 42 43 45 46 47 48 50 51 52 52 53 52 53 53 53 54 55 56 57 58 59 59 60 60 61 62 63
31 32 33 33 34 35 35 36 37 38 38 39 40 40 41 41 42 43 44 46 47 48 49 50 51 52 53 53 53 54 54 54 56 57 58 58 59 59 60 61 61 62 64
31 32 33 34 34 35 35 36 37 38 39 40 40 41 42 42 42 43 44 46 47 48 49 50 51 51 52 53 54 55 56 57 57 57 58 59 59 59 60 61 62 62 63
32 33 34 35 35 35 36 36 37 39 40 40 41 42 42 43 43 44 44 46 47 48 49 50 51 52 53 53 54 55 56 57 57 57 57 58 58 59 59 60 61 62 62
33 34 35 35 35 36 37 37 38 39 40 41 41 42 43 44 44 45 46 47 47 49 50 51 52 53 54 54 55 55 56 56 56 57 57 58 58 58 59 59 60 60 61
34 35 35 36 36 37 38 38 39 40 40 41 42 43 44 45 45 46 47 47 48 49 50 51 52 53 54 55 55 55 56 56 56 56 57 57 58 58 58 58 59 59 60
35 36 36 37 38 38 38 39 39 40 41 42 42 43 44 46 46 47 47 48 49 49 49 50 51 52 53 54 55 55 56 56 56 56 55 56 56 57 58 58 58 58 59
37 37 38 38 38 39 39 39 40 41 41 42 43 44 44 45 47 47 48 48 49 49 50 50 50 51 52 53 53 54 55 54 54 54 54 54 54 56 57 57 57 57 57
37 38 38 39 39 39 39 40 41 41 42 43 44 44 45 45 46 47 47 48 48 49 49 49 50 51 52 52 53 53 53 52 52 52 52 53 53 53 54 54 55 55 56
38 38 39 40 40 40 40 41 41 42 43 43 44 44 45 45 45 46 46 47 48 49 49 50 50 51 51 51 51 51 51 51 51 51 51 52 52 53 53 52 52 53 54
38 39 39 40 40 40 41 41 42 42 43 43 44 44 44 44 44 45 46 47 48 49 49 49 50 50 50 51 51 51 51 51 50 50 50 50 50 51 52 52 52 52 53
38 39 39 39 40 40 41 41 42 42 43 43 44 44 44 44 44 45 45 46 47 48 48 48 49 49 49 50 51 51 51 50 49 49 49 49 49 49 49 50 51 51 51
38 38 38 39 40 40 41 41 42 42 43 43 43 44 44 44 45 45 45 46 46 47 47 47 48 48 48 49 50 51 51 50 49 48 48 48 47 47 47 48 49 49 49
38 38 39 39 40 40 40 40 41 42 43 43 44 44 44 44 44 45 45 46 46 46 46 46 46 47 48 48 49 49 49 49 48 47 47 46 46 45 45 45 47 47 47
38 38 39 39 39 39 40 41 41 42 42 42 43 44 44 44 44 44 45 46 46 47 46 46 46 46 47 47 47 47 47 47 47 46 46 45 45 45 45 45 45 46 47
38 38 38 39 39 40 41 42 43 43 43 43 43 43 43 43 44 45 46 46 46 47 47 47 46 46 46 46 45 45 45 45 45 45 45 45 45 45 45 45 45 46 46
38 39 39 39 40 41 42 43 43 42 42 42 42 42 42 43 44 45 45 45 46 46 47 47 47 46 45 45 45 44 44 44 44 44 43 43 43 44 44 44 44 44 43
38 38 39 40 41 41 42 42 42 42 41 41 42 42 42 43 44 44 45 45 45 46 46 46 46 45 44 43 43 44 43 43 43 43 42 42 42 42 42 43 43 42 42
Wind_Direction
267 267 266 266 267 267 267 267 266 264 263 263 263 264 264 265 265 265 265 264 263 263 263 264 265 265 266 265 264 264 262 262 261 262 261 260 260 261 261 261 260 260 260
267 267 267 266 267 268 269 269 268 267 265 264 263 264 264 264 265 266 266 266 266 266 266 266 266 267 266 265 265 264 263 263 262 262 263 262 261 261 261 261 261 261 261
268 268 266 267 268 270 271 271 271 270 269 266 264 264 265 265 266 266 266 266 267 268 268 268 268 268 268 267 265 265 264 263 263 263 263 263 262 261 262 262 262 261 261
268 268 267 268 270 271 271 272 272 272 272 270 267 266 265 266 266 266 267 268 269 269 269 268 268 269 269 268 266 266 265 264 264 263 263 264 263 262 261 261 261 261 261
270 270 269 269 270 271 272 273 273 273 273 273 271 268 268 267 267 267 268 269 269 269 269 269 269 269 270 269 268 268 267 266 264 264 263 263 263 263 263 262 261 261 261
271 271 271 271 271 271 272 273 274 274 274 274 273 271 270 269 268 268 268 268 268 270 270 270 270 270 271 270 270 269 268 267 266 265 264 264 264 264 264 263 262 261 261
272 271 272 272 272 273 272 273 274 275 275 275 276 274 272 271 270 269 269 268 269 270 270 271 271 271 272 272 271 270 269 268 267 266 266 266 266 265 265 264 263 262 261
273 272 272 273 274 274 274 274 274 275 276 276 276 275 273 272 272 271 270 270 270 270 271 271 271 272 272 272 271 271 270 269 268 267 267 267 266 266 265 264 263 262 261
274 274 274 274 273 274 275 275 275 275 275 276 276 276 275 274 274 273 272 272 271 272 272 272 272 272 273 273 272 271 270 270 269 268 268 268 267 267 267 265 265 264 263
276 276 276 275 274 275 276 276 275 276 276 275 276 276 277 277 276 276 275 274 273 273 273 273 273 274 273 273 272 272 272 271 270 270 269 269 268 267 267 266 266 265 265
278 277 277 276 275 276 277 277 277 277 277 277 277 276 277 277 277 278 277 276 276 275 275 274 273 273 273 274 274 273 273 272 271 270 269 269 268 268 267 267 267 266 265
278 278 278 277 276 276 277 277 278 278 278 278 278 278 278 278 278 278 278 278 278 278 277 276 274 274 274 275 275 274 274 272 271 271 270 270 270 270 269 268 267 267 266
280 280 280 279 278 278 278 278 279 280 280 279 279 280 280 280 280 280 280 280 280 280 279 278 276 275 275 275 276 275 274 273 273 272 272 271 271 270 270 269 268 268 267
282 281 281 280 280 280 279 279 279 280 280 280 281 281 282 281 282 281 281 281 281 281 280 279 278 277 276 276 276 277 276 275 274 273 273 272 272 271 270 270 269 268 267
283 282 282 281 281 281 280 280 280 281 281 281 281 282 283 282 282 282 282 281 281 282 281 281 280 279 278 278 278 278 277 276 275 274 273 273 273 272 271 270 269 267 267
283 282 282 282 282 282 281 281 281 282 282 282 282 283 284 283 283 283 283 282 282 282 282 282 282 281 279 279 279 278 278 276 275 274 273 273 273 273 271 271 270 269 267
283 282 282 282 282 282 282 282 282 282 283 283 284 284 285 285 285 284 284 284 283 282 283 283 283 282 281 280 280 279 278 277 276 275 273 273 273 273 273 271 270 269 268
284 283 282 282 282 282 282 282 282 283 284 284 285 285 285 286 286 285 285 285 284 284 284 284 284 284 283 281 281 280 279 278 277 275 274 273 273 272 272 271 270 269 268
284 284 284 284 283 283 283 283 283 284 285 286 286 286 286 286 286 286 286 285 285 285 285 285 285 285 283 282 281 280 280 279 278 276 275 274 273 272 272 271 271 269 268
285 285 285 285 285 285 285 285 285 285 285 286 286 286 286 286 286 287 287 287 286 286 286 287 286 285 284 283 282 281 281 280 279 278 277 276 274 273 273 273 272 270 269
286 287 287 286 286 286 286 286 286 287 286 286 286 286 287 287 286 287 287 288 288 287 287 287 287 286 285 284 283 282 281 280 279 278 277 277 275 275 274 274 272 271 270
287 288 288 287 287 287 287 287 287 288 288 287 287 287 287 287 287 287 288 289 288 288 288 288 287 286 286 285 284 283 282 280 279 278 277 276 276 275 274 274 273 272 271
288 288 288 288 288 288 288 288 289 289 289 288 288 288 288 288 288 288 288 289 289 288 288 288 287 287 286 286 285 283 282 280 279 278 277 276 276 275 274 275 274 273 272
288 289 289 289 289 289 289 289 290 290 289 289 289 289 289 288 289 289 289 290 290 289 289 288 288 287 287 285 284 283 282 280 278 278 277 275 274 274 274 274 274 274 273
288 290 290 290 290 291 291 291 291 291 290 290 290 290 290 290 291 291 291 291 291 291 290 290 289 289 287 286 284 283 282 281 280 278 277 275 274 274 274 274 274 274 273
290 291 291 291 292 292 292 292 291 291 291 291 291 291 291 292 292 293 293 293 293 292 291 291 291 290 289 287 285 284 283 281 280 279 278 276 274 273 274 274 273 273 272